Oakland, CA

9:47 PM PST on December 14, 2019 (GMT -0800)
Metro Oakland International

Weather History for KOAK - October, 2019

Change the Weather History Date:

Sunday, October 13, 2019

  Actual Average Record
Temperature  
Mean Temperature 59 °F 61 °F  
Max Temperature 71 °F 70 °F 92 °F (2010)
Min Temperature 47 °F 52 °F 43 °F (2017)
Degree Days  
Heating Degree Days 6 4  
Month to date heating degree days 41 47  
Since 1 July heating degree days 71 247  
Cooling Degree Days 0 0  
Month to date cooling degree days 9 12  
Year to date cooling degree days 373 137  
Growing Degree Days 8 (Base 50)    
Moisture  
Dew Point 47 °F    
Average Humidity 64    
Maximum Humidity 89    
Minimum Humidity 39    
Precipitation  
Precipitation 0.00 in 0.04 in 4.52 in (1962)
Month to date precipitation 0.00 0.33  
Year to date precipitation 15.94 13.83  
Sea Level Pressure  
Sea Level Pressure 29.87 in    
Wind  
Wind Speed 5 mph (NW)    
Max Wind Speed 16 mph    
Max Gust Speed 20 mph    
Visibility 10 miles    
Events Fog    
T = Trace of Precipitation, MM = Missing Value Source: NWS Daily Summary

Daily Weather History Graph

Daily Weather History Graph

Search for Another Location

Airport or City:

Astronomy

Oct. 13, 2019 Rise Set
Actual Time 7:15 AM PDT 6:34 PM PDT
Civil Twilight 6:48 AM PDT 7:00 PM PDT
Nautical Twilight 6:18 AM PDT 7:31 PM PDT
Astronomical Twilight 5:48 AM PDT 8:01 PM PDT
Moon 6:58 PM PDT (10/13) 6:55 AM PDT (10/13)
Length of Visible Light 12h 11m
Length of Day
11h 19m
Full, 100% of the Moon is Illuminated
Oct 13
Full
Oct 13
Full
Oct 21
Last Quarter
Oct 27
New
Nov 4
First Quarter

Hourly Weather History & Observations

Time (PDT) Temp. Dew Point Humidity Pressure Visibility Wind Dir Wind Speed Gust Speed Precip Events Conditions
12:53 AM 55.9 °F 46.9 °F 72% 29.87 in 10.0 mi NW 5.8 mph - N/A   Mostly Cloudy
1:53 AM 52.0 °F 45.0 °F 77% 29.86 in 10.0 mi Calm Calm - N/A   Mostly Cloudy
2:53 AM 53.1 °F 46.9 °F 80% 29.86 in 10.0 mi Calm Calm - N/A   Mostly Cloudy
3:53 AM 51.1 °F 42.1 °F 71% 29.85 in 10.0 mi Calm Calm - N/A   Mostly Cloudy
4:53 AM 51.1 °F 44.1 °F 77% 29.86 in 10.0 mi NNE 3.5 mph - N/A   Mostly Cloudy
5:53 AM 48.9 °F 43.0 °F 80% 29.86 in 10.0 mi ENE 3.5 mph - N/A   Mostly Cloudy
6:53 AM 46.9 °F 42.1 °F 83% 29.86 in 10.0 mi ENE 3.5 mph - N/A   Mostly Cloudy
7:53 AM 52.0 °F 43.0 °F 71% 29.86 in 10.0 mi Calm Calm - N/A   Mostly Cloudy
8:53 AM 57.9 °F 50.0 °F 75% 29.88 in 10.0 mi Calm Calm - N/A   Mostly Cloudy
9:53 AM 61.0 °F 51.1 °F 70% 29.88 in 10.0 mi WNW 4.6 mph - N/A   Scattered Clouds
10:53 AM 62.1 °F 52.0 °F 70% 29.89 in 10.0 mi WNW 6.9 mph - N/A   Scattered Clouds
11:53 AM 66.0 °F 48.0 °F 52% 29.88 in 10.0 mi WNW 8.1 mph - N/A   Partly Cloudy
12:53 PM 66.0 °F 48.9 °F 54% 29.87 in 10.0 mi WNW 8.1 mph - N/A   Partly Cloudy
1:53 PM 68.0 °F 43.0 °F 40% 29.85 in 10.0 mi WNW 6.9 mph - N/A   Partly Cloudy
2:53 PM 70.0 °F 46.0 °F 42% 29.83 in 10.0 mi WNW 9.2 mph - N/A   Partly Cloudy
3:18 PM 69.1 °F 46.0 °F 44% 29.84 in 10.0 mi WNW 13.8 mph - N/A   Partly Cloudy
3:53 PM 64.9 °F 48.9 °F 56% 29.85 in 10.0 mi WNW 15.0 mph - N/A   Partly Cloudy
4:53 PM 63.0 °F 48.9 °F 60% 29.85 in 10.0 mi WNW 13.8 mph - N/A   Partly Cloudy
5:53 PM 63.0 °F 43.0 °F 48% 29.85 in 10.0 mi NW 5.8 mph - N/A   Partly Cloudy
6:53 PM 59.0 °F 46.9 °F 64% 29.86 in 10.0 mi WNW 6.9 mph - N/A   Partly Cloudy
7:53 PM 55.9 °F 48.0 °F 75% 29.86 in 10.0 mi WNW 6.9 mph - N/A   Partly Cloudy
8:53 PM 55.9 °F 48.0 °F 75% 29.88 in 10.0 mi NW 3.5 mph - N/A   Partly Cloudy
9:53 PM 53.1 °F 48.0 °F 83% 29.88 in 10.0 mi North 3.5 mph - N/A   Partly Cloudy
10:53 PM 54.0 °F 50.0 °F 86% 29.91 in 10.0 mi NW 4.6 mph - N/A Fog Shallow Fog
11:53 PM 55.0 °F 51.1 °F 86% 29.91 in 10.0 mi WNW 6.9 mph - N/A   Partly Cloudy